This is the latest recevied weather packets stored in our database for station/object EA7DYY-12. If no packets are shown the sender has not sent any weather packets the latest 10 day(s).
| Time | Temp. | Humidity | Pressure | Rain* | Wind** | Luminosity | Snow |
|---|---|---|---|---|---|---|---|
| 1787834498 | 21.11° C | 56% | 1158.4 hPa | - | - | - | - |
| 1787833598 | 20.56° C | 56% | 1158.2 hPa | - | - | - | - |
| 1787832698 | 20.56° C | 56% | 1158.2 hPa | - | - | - | - |
| 1787831798 | 21.11° C | 55% | 1158.1 hPa | - | - | - | - |
| 1787830897 | 20.56° C | 56% | 1158.3 hPa | - | - | - | - |
| 1787829097 | 20.56° C | 56% | 1158.3 hPa | - | - | - | - |
| 1787828197 | 20.56° C | 55% | 1158.4 hPa | - | - | - | - |
| 1787827297 | 20.56° C | 55% | 1158.2 hPa | - | - | - | - |
| 1787826397 | 21.11° C | 58% | 1158.3 hPa | - | - | - | - |
| 1787825497 | 20.56° C | 59% | 1158.2 hPa | - | - | - | - |
| 1787824597 | 21.11° C | 58% | 1158.2 hPa | - | - | - | - |
| 1787823697 | 21.11° C | 57% | 1157.9 hPa | - | - | - | - |
| 1787821891 | 21.11° C | 59% | 1157.5 hPa | - | - | - | - |
| 1787820991 | 21.11° C | 59% | 1157.5 hPa | - | - | - | - |
| 1787820091 | 21.11° C | 59% | 1157.5 hPa | - | - | - | - |
| 1787819191 | 21.11° C | 60% | 1157.4 hPa | - | - | - | - |
| 1787818291 | 21.11° C | 61% | 1157.3 hPa | - | - | - | - |
| 1787817391 | 21.11° C | 62% | 1157.1 hPa | - | - | - | - |
| 1787816491 | 20.56° C | 63% | 1157 hPa | - | - | - | - |
| 1787814691 | 21.11° C | 61% | 1156.8 hPa | - | - | - | - |
| 1787813791 | 21.11° C | 61% | 1156.7 hPa | - | - | - | - |
| 1787812890 | 21.11° C | 61% | 1156.6 hPa | - | - | - | - |
| 1787811990 | 21.11° C | 61% | 1156.5 hPa | - | - | - | - |
| 1787811090 | 21.11° C | 61% | 1156.3 hPa | - | - | - | - |
| 1787810190 | 21.11° C | 60% | 1156.1 hPa | - | - | - | - |
* Rain since midnight (hover to see other rain measurements)
** Current wind speed in m/s (hover to see current wind gust speed)